{"data":{"norad_id":63835,"intl_designator":"2025-052BR","name":"HERMES-3","alt_names":[],"object_type":"PAYLOAD","status":"ACTIVE","operator":null,"country":"IT","launch_date":"2025-03-15","launch_site_code":"AFWTR","launch_vehicle":null,"mission":null,"orbit_class":"UNKNOWN","rcs_meters":null,"size_class":null,"mass_kg":null,"dimensions":null,"purposes":[],"wikipedia_slug":null,"has_3d_model":false,"image_url":null,"decayed_at":null,"tle_current":{"epoch":"2026-09-21T14:14:34.321920Z","epoch_age_seconds":107226,"freshness":"FRESH","line1":"1 63835U 25052BR  26264.59345280  .00015340  00000+0  42493-3 0  9992","line2":"2 63835  97.3709 160.2352 0007393 129.7070 230.4827 15.37033051 84858","mean_motion":15.37033051,"eccentricity":0.0007393,"inclination_deg":97.3709,"raan_deg":160.2352,"arg_perigee_deg":129.707,"mean_anomaly_deg":230.4827,"bstar":0.00042493,"rev_number":8485,"period_min":93.686989948793,"perigee_km":449.83677624171,"apogee_km":459.94008764538,"semimajor_km":6833.0254319435,"source":"CELESTRAK","updated_at":"2026-09-22T09:00:29.367006Z"}}}